[Iaude] MPEC L27: 2024 LG [a=2.40,e=0.60,i=12.2,H=21.1]

mpec at cfa.harvard.edu mpec at cfa.harvard.edu
Mon Jun 3 06:41:21 EDT 2024


M.P.E.C. 2024-L27                                  Issued 2024 June 3, 10:39 UT

     The Minor Planet Electronic Circulars contain information on unusual
         minor planets, routine data on comets and natural satellites,
         and occasional editorial announcements.  They are published
    on behalf of Division F of the International Astronomical Union by the
          Minor Planet Center, Smithsonian Astrophysical Observatory,
                          Cambridge, MA 02138, U.S.A.
			  
             Prepared using the Tamkin Foundation Computer Network

                              MPC at CFA.HARVARD.EDU
            URL https://www.minorplanetcenter.net/    ISSN 1523-6714

                                    2024 LG                                     


Observations:
     K24L00G* C2024 06 01.27308115 06 26.959+30 16 23.56         20.64wXEL027F52
     K24L00G  C2024 06 01.28546415 06 26.229+30 16 54.93         21.04wXEL027F52
     K24L00G  C2024 06 01.31023115 06 24.748+30 17 57.34         20.78wXEL027F52
     K24L00G  C2024 06 01.49660115 06 13.617+30 25 37.91         20.93GVEL027F52
     K24L00G  C2024 06 01.49725215 06 13.583+30 25 39.45         20.92GVEL027F52
     K24L00G KC2024 06 01.96817315 05 51.720+30 44 59.89         20.2 GVEL027J95
     K24L00G KC2024 06 01.97287415 05 51.437+30 45 11.02         20.4 GVEL027J95
     K24L00G KC2024 06 01.97759215 05 51.202+30 45 23.08         20.3 GVEL027J95
     K24L00G KB2024 06 01.98434315 05 50.72 +30 45 43.0          20.9 GXEL027I93
     K24L00G KB2024 06 01.99297015 05 50.26 +30 46 03.6          20.9 GXEL027I93
     K24L00G 1C2024 06 02.00061 15 05 49.65 +30 46 18.8          21.5 VXEL027033
     K24L00G KB2024 06 02.00124615 05 49.79 +30 46 24.2          20.9 GXEL027I93
     K24L00G 1C2024 06 02.00159 15 05 49.60 +30 46 21.1          21.4 VXEL027033
     K24L00G 1C2024 06 02.00259 15 05 49.52 +30 46 23.6          21.7 VXEL027033
     K24L00G 1C2024 06 02.00358 15 05 49.46 +30 46 26.0          21.9 VXEL027033
     K24L00G 1C2024 06 02.00807 15 05 49.23 +30 46 36.9          21.3 VXEL027033
     K24L00G 1C2024 06 02.00909 15 05 49.16 +30 46 39.5          20.9 VXEL027033
     K24L00G 1C2024 06 02.01007 15 05 49.12 +30 46 42.3          20.9 VXEL027033
     K24L00G 1C2024 06 02.01110 15 05 49.08 +30 46 44.5          20.7 VXEL027033
     K24L00G 6C2024 06 02.10283 15 05 44.06 +30 50 35.0          20.7 GVEL027Z84
     K24L00G 6C2024 06 02.10926 15 05 43.73 +30 50 50.7          20.2 GVEL027Z84
     K24L00G 6C2024 06 02.11570 15 05 43.35 +30 51 06.2          20.5 GVEL027Z84
     K24L00G KC2024 06 02.16749415 05 42.91 +30 53 20.4          20.6 GXEL027858
     K24L00G KC2024 06 02.17822815 05 42.25 +30 53 47.5          20.8 GXEL027858
     K24L00G  C2024 06 02.18214815 05 42.068+30 53 57.70         20.5 GVEL027H01
     K24L00G  C2024 06 02.18708915 05 41.777+30 54 10.19         20.4 GVEL027H01
     K24L00G KC2024 06 02.18809315 05 41.70 +30 54 12.1          21.1 GXEL027858
     K24L00G  C2024 06 02.19672515 05 41.215+30 54 34.06         20.6 GVEL027H01
     K24L00G  C2024 06 02.20679515 05 40.616+30 54 59.27         20.6 GVEL027H01
     K24L00G !C2024 06 02.26657 15 05 37.39 +30 57 27.8          20.0 GVEL027673
     K24L00G !C2024 06 02.27075 15 05 37.14 +30 57 37.9                VEL027673
     K24L00G !C2024 06 02.27909 15 05 36.63 +30 57 58.6                VEL027673
     K24L00G KC2024 06 02.32606315 05 33.670+30 59 54.35         20.71GVEL027I52
     K24L00G KC2024 06 02.32971815 05 33.497+31 00 03.10         20.71GVEL027I52
     K24L00G KC2024 06 02.33337615 05 33.284+31 00 11.88         20.82GVEL027I52
     K24L00G KC2024 06 02.33703215 05 33.047+31 00 21.02         20.84GVEL027I52
     K24L00G KB2024 06 03.02614015 05 00.01 +31 28 42.9          19.9 GXEL027958
     K24L00G KB2024 06 03.04289015 04 59.00 +31 29 23.3          19.8 GXEL027958
     K24L00G KB2024 06 03.05353515 04 58.47 +31 29 48.4          20.3 GXEL027958
     K24L00G KC2024 06 03.16300015 04 54.27 +31 34 25.7          21.0 GVEL027H21
     K24L00G KC2024 06 03.16348215 04 54.24 +31 34 27.0          20.9 GVEL027H21
     K24L00G KC2024 06 03.16974415 04 53.87 +31 34 42.3          21.4 GVEL027H21
     K24L00G KC2024 06 03.17215215 04 53.73 +31 34 48.3          20.7 GVEL027H21
     K24L00G !C2024 06 03.30361 15 04 46.94 +31 40 15.3          20.0 GVEL027673
     K24L00G !C2024 06 03.30784 15 04 46.65 +31 40 25.0                VEL027673

Observer details:
033 Karl Schwarzschild Observatory, Tautenburg.  Observers C. Heogner, F.
    Ludwig, M. Hartmann, B. Stecklum.  Measurer B. Stecklum.  1.34-m f/3
    Schmidt + CCD.
673 Table Mountain Observatory, Wrightwood.  Observer J. Pittichova.  1.0-m
    f/15 reflector + CCD.
858 Tebbutt Observatory, Edgewood.  Observer F. B. Zoltowski.  0.51-m f/8.1
    Schmidt-Cassegrain + CCD.
958 Observatoire de Dax.  Observer P. Dupouy.  0.50-m f/4.5 Reflector + CMO.
F52 Pan-STARRS 2, Haleakala.  Observers J. Herman, T. Lowe, P. Minguez, A.
    Schultz, I. Smith.  Measurers K. Chambers, T. de Boer, J. Fairlamb, H.
    Gao, M. Huber, C.-C. Lin, E. Magnier, Y. Ramanjooloo, R. Wainscoat, R.
    Weryk.  1.8-m Ritchey-Chretien + CCD.
H01 Magdalena Ridge Observatory, Socorro.  Observers W. H. Ryan, E. V. Ryan.
    Measurer W. H. Ryan.  2.4-m f/8.9 Ritchey-Chretien + CCD.
H21 Astronomical Research Observatory, Westfield.  Observer R. Holmes.
    Measurers T. Linder, R. Holmes, L. Horn.  1.3-m f/4.0 astrograph + CCD.
I52 Steward Observatory, Mt. Lemmon Station.  Observer K. W. Wierzchos.
    Measurers T. Beuden, V. F. Carvajal, D. Fay, J. B. Fazekas, D. C. Fuls, A.
    R. Gibbs, A. D. Grauer, H. Groeller, J. K. Hogan, R. A. Kowalski, S. M.
    Larson, G. J. Leonard, D. Rankin, R. L. Seaman, F. C. Shelly, K. W.
    Wierzchos.  1.0-m prime focus + CCD.
I93 St Pardon de Conques.  Observer F. Losse.  0.40-m f/3.7 reflector + CMO.
J95 Great Shefford.  Observer P. Birtwhistle.  0.41-m f/6.3 Schmidt-Cassegrain
    + CCD.
Z84 Calar Alto-Schmidt.  Observers M. Micheli, R. Kresken.  Measurers R.
    Kresken, M. Micheli, F. Ocana, L. Conversi.  0.8-m f/3 Schmidt + CCD.

Orbital elements:
2024 LG                                                  Earth MOID = 0.0501 AU
Epoch 2024 Mar. 31.0 TT = JDT 2460400.5                 Veres                   
M 327.71053              (2000.0)            P               Q                  
n   0.26571006     Peri.  134.92227     +0.63394465     +0.77309523             
a   2.3962422      Node   174.30257     -0.75559250     +0.62490839             
e   0.5952031      Incl.   12.16911     -0.16490650     +0.10868883             
P   3.71           H   21.15          G   0.15           U   9                  
Residuals in seconds of arc
240601 F52  0.2+  0.3-    240602 033  0.1-  0.1-    240602 673  0.0   0.1+
240601 F52  0.2+  0.2-    240602 033  0.3-  0.0     240602 673  0.2-  0.1+
240601 F52  0.1+  0.2-    240602 033  0.1-  0.4+    240602 I52  0.4-  0.0
240601 F52  0.1-  0.2-    240602 033  0.1+  0.0     240602 I52  0.1+  0.2-
240601 F52  0.1-  0.2-    240602 Z84  0.1+  0.0     240602 I52  0.1+  0.3-
240601 J95  0.1-  0.4+    240602 Z84  0.3+  0.1+    240602 I52  0.3-  0.1-
240601 J95  0.3-  0.1-    240602 Z84  0.2-  0.0     240603 958  1.1+  0.6-
240601 J95  0.1+  0.3+    240602 858  0.4+  0.3-    240603 958  0.1+  1.0-
240601 I93  0.2-  0.7+    240602 858  0.1-  0.0     240603 958  0.8+  1.8-
240601 I93  0.3+  0.1+    240602 H01  0.1+  0.1-    240603 H21  0.0   0.1+
240602 033  0.0   0.0     240602 H01  0.1+  0.1+    240603 H21  0.0   0.2+
240602 I93  0.3+  0.4+    240602 858  0.3+  0.1-    240603 H21  0.0   0.0
240602 033  0.1+  0.1-    240602 H01  0.2+  0.1-    240603 H21  0.1-  0.0
240602 033  0.2-  0.0     240602 H01  0.1+  0.0     240603 673  0.4+  0.1+
240602 033  0.3-  0.0     240602 673  0.0   0.3+    240603 673  0.1-  0.6-

Ephemeris:
2024 LG                  a,e,i = 2.40, 0.60, 12                  q = 0.9700
Date    TT    R. A. (2000) Decl.     Delta      r    Elong.  Phase     V
2024 05 04    15 26 04.7 +11 05 20   0.4939  1.4603   151.1    19.5    21.4
...
2024 05 19    15 17 07.4 +21 01 22   0.4006  1.3390   138.7    29.9    21.1
...
2024 05 27    15 10 46.2 +26 36 25   0.3641  1.2764   129.6    37.7    21.0
...
2024 06 02    15 05 50.5 +30 46 26   0.3410  1.2310   122.4    44.1    21.0
2024 06 03    15 05 02.0 +31 27 44   0.3374  1.2236   121.2    45.2    21.0
2024 06 04    15 04 14.2 +32 08 55   0.3339  1.2163   120.0    46.3    20.9
...
2024 06 10    14 59 44.8 +36 13 46   0.3137  1.1734   112.9    52.9    20.9
...
2024 06 18    14 54 58.4 +41 40 00   0.2883  1.1202   103.8    61.7    20.9
...
2024 07 03    14 50 21.5 +53 02 51   0.2400  1.0372    88.2    78.5    20.9

M. P. C. Staff               (C) Copyright 2024 MPC           M.P.E.C. 2024-L27





More information about the Iaude mailing list